When you browse on this site, cookies collect data to enhance your experience and personalize the content and advertising you see.
Visit our Privacy Policy to learn more. By continuing to use the site, you agree to this use of cookies and data.

Hourly Weather San Miguel de Tucumán

Today, 26 September, Saturday

Time Temperature Precipitation Wind Pressure Humidity
00:00 +28°C° 0 mm 1 mps 712 mmHg 42%
01:00 +28°C° 0 mm 1 mps 711 mmHg 42%
02:00 +27°C° 0 mm 1 mps 711 mmHg 43%
03:00 +27°C° 0 mm 1 mps 711 mmHg 44%
04:00 +26°C° 0 mm 1 mps 711 mmHg 44%
05:00 +26°C° 0 mm 1 mps 711 mmHg 45%
06:00 +27°C° 0 mm 2 mps 712 mmHg 45%
07:00 +28°C° 0 mm 3 mps 712 mmHg 45%
08:00 +29°C° 0 mm 4 mps 713 mmHg 45%
09:00 +30°C° 0 mm 4 mps 713 mmHg 42%
10:00 +33°C° 0 mm 4 mps 713 mmHg 39%
11:00 +35°C° 0 mm 4 mps 713 mmHg 36%
12:00 +36°C° 0 mm 4 mps 713 mmHg 34%
13:00 +37°C° 0 mm 4 mps 712 mmHg 31%
14:00 +38°C° 0 mm 4 mps 712 mmHg 29%
15:00 +37°C° 0 mm 4 mps 711 mmHg 30%
16:00 +36°C° 0 mm 4 mps 711 mmHg 32%
17:00 +36°C° 0 mm 4 mps 711 mmHg 33%
18:00 +33°C° 0.5 mm 4 mps 712 mmHg 41%
19:00 +30°C° 0.5 mm 3 mps 713 mmHg 48%
20:00 +27°C° 0.5 mm 2 mps 714 mmHg 55%
21:00 +26°C° 0.4 mm 3 mps 715 mmHg 56%
22:00 +24°C° 0.4 mm 3 mps 716 mmHg 56%
23:00 +22°C° 0.4 mm 3 mps 716 mmHg 57%

Tomorrow, 27 September, Sunday

Time Temperature Precipitation Wind Pressure Humidity
00:00 +21°C° 0 mm 3 mps 716 mmHg 58%
01:00 +20°C° 0 mm 2 mps 717 mmHg 59%
02:00 +19°C° 0 mm 2 mps 717 mmHg 61%
03:00 +19°C° 0 mm 2 mps 717 mmHg 64%
04:00 +20°C° 0 mm 1 mps 718 mmHg 68%
05:00 +20°C° 0 mm 1 mps 718 mmHg 71%
06:00 +20°C° 0 mm 2 mps 719 mmHg 57%
07:00 +21°C° 0 mm 2 mps 720 mmHg 43%
08:00 +22°C° 0 mm 3 mps 720 mmHg 29%
09:00 +23°C° 0 mm 4 mps 720 mmHg 24%
10:00 +26°C° 0 mm 4 mps 721 mmHg 19%
11:00 +27°C° 0 mm 5 mps 721 mmHg 13%
12:00 +28°C° 0 mm 4 mps 720 mmHg 13%
13:00 +29°C° 0 mm 4 mps 719 mmHg 13%
14:00 +29°C° 0 mm 4 mps 718 mmHg 12%
15:00 +29°C° 0 mm 3 mps 718 mmHg 13%
16:00 +28°C° 0 mm 3 mps 718 mmHg 14%
17:00 +28°C° 0 mm 3 mps 718 mmHg 14%
18:00 +25°C° 0 mm 2 mps 719 mmHg 18%
19:00 +23°C° 0 mm 2 mps 720 mmHg 21%
20:00 +20°C° 0 mm 1 mps 720 mmHg 24%
21:00 +20°C° 0 mm 1 mps 721 mmHg 25%
22:00 +19°C° 0 mm 1 mps 721 mmHg 26%
23:00 +18°C° 0 mm 1 mps 721 mmHg 27%

Day after tomorrow, 28 September, Monday

Time Temperature Precipitation Wind Pressure Humidity
00:00 +18°C° 0 mm 1 mps 721 mmHg 28%
01:00 +16°C° 0 mm 1 mps 721 mmHg 30%
02:00 +15°C° 0 mm 1 mps 720 mmHg 32%
03:00 +15°C° 0 mm 1 mps 720 mmHg 34%
04:00 +14°C° 0 mm 1 mps 720 mmHg 35%
05:00 +14°C° 0 mm 1 mps 720 mmHg 36%
06:00 +16°C° 0 mm 1 mps 720 mmHg 33%
07:00 +19°C° 0 mm 1 mps 721 mmHg 30%
08:00 +20°C° 0 mm 1 mps 721 mmHg 26%
09:00 +23°C° 0 mm 2 mps 721 mmHg 24%
10:00 +25°C° 0 mm 3 mps 720 mmHg 22%
11:00 +28°C° 0 mm 4 mps 720 mmHg 19%
12:00 +29°C° 0 mm 4 mps 719 mmHg 19%
13:00 +30°C° 0 mm 5 mps 718 mmHg 18%
14:00 +33°C° 0 mm 5 mps 717 mmHg 17%
15:00 +32°C° 0 mm 5 mps 716 mmHg 18%
16:00 +30°C° 0 mm 6 mps 715 mmHg 20%
17:00 +30°C° 0 mm 6 mps 714 mmHg 21%
18:00 +28°C° 0 mm 5 mps 715 mmHg 24%
19:00 +25°C° 0 mm 5 mps 715 mmHg 28%
20:00 +22°C° 0 mm 4 mps 715 mmHg 31%
21:00 +21°C° 0 mm 3 mps 715 mmHg 33%
22:00 +20°C° 0 mm 3 mps 715 mmHg 35%
23:00 +19°C° 0 mm 2 mps 715 mmHg 37%

29 September, Tuesday

Time Temperature Precipitation Wind Pressure Humidity
00:00 +18°C° 0 mm 2 mps 714 mmHg 38%
01:00 +19°C° 0 mm 1 mps 714 mmHg 39%
02:00 +18°C° 0 mm 1 mps 714 mmHg 40%
03:00 +16°C° 0 mm 1 mps 713 mmHg 41%
04:00 +16°C° 0 mm 1 mps 713 mmHg 43%
05:00 +15°C° 0 mm 1 mps 713 mmHg 44%
06:00 +18°C° 0 mm 1 mps 713 mmHg 40%
07:00 +20°C° 0 mm 1 mps 714 mmHg 36%
08:00 +22°C° 0 mm 1 mps 714 mmHg 32%
09:00 +25°C° 0 mm 1 mps 714 mmHg 27%
10:00 +28°C° 0 mm 1 mps 713 mmHg 23%
11:00 +31°C° 0 mm 1 mps 713 mmHg 19%
12:00 +32°C° 0 mm 1 mps 713 mmHg 18%
13:00 +35°C° 0 mm 2 mps 712 mmHg 16%
14:00 +36°C° 0 mm 2 mps 711 mmHg 14%
15:00 +36°C° 0 mm 2 mps 711 mmHg 15%
16:00 +36°C° 0 mm 2 mps 711 mmHg 15%
17:00 +35°C° 0 mm 2 mps 711 mmHg 16%
18:00 +32°C° 0 mm 2 mps 712 mmHg 19%
19:00 +29°C° 0 mm 2 mps 712 mmHg 23%
20:00 +26°C° 0 mm 1 mps 713 mmHg 26%
21:00 +25°C° 0 mm 1 mps 713 mmHg 27%
22:00 +24°C° 0 mm 1 mps 713 mmHg 29%
23:00 +24°C° 0 mm 1 mps 714 mmHg 30%

30 September, Wednesday

Time Temperature Precipitation Wind Pressure Humidity
00:00 +23°C° 0 mm 1 mps 713 mmHg 31%
01:00 +23°C° 0 mm 1 mps 713 mmHg 32%
02:00 +22°C° 0 mm 1 mps 713 mmHg 33%
03:00 +22°C° 0 mm 1 mps 713 mmHg 34%
04:00 +22°C° 0 mm 1 mps 713 mmHg 34%
05:00 +21°C° 0 mm 1 mps 713 mmHg 34%
06:00 +23°C° 0 mm 1 mps 713 mmHg 32%
07:00 +25°C° 0 mm 1 mps 714 mmHg 29%
08:00 +26°C° 0 mm 1 mps 714 mmHg 27%
09:00 +29°C° 0 mm 1 mps 714 mmHg 25%
10:00 +32°C° 0 mm 2 mps 714 mmHg 24%
11:00 +35°C° 0 mm 2 mps 714 mmHg 22%
12:00 +36°C° 0 mm 2 mps 713 mmHg 22%
13:00 +37°C° 0 mm 2 mps 712 mmHg 21%
14:00 +39°C° 0 mm 2 mps 712 mmHg 20%
15:00 +38°C° 0 mm 3 mps 712 mmHg 22%
16:00 +38°C° 0 mm 3 mps 712 mmHg 23%
17:00 +37°C° 0 mm 3 mps 712 mmHg 24%
18:00 +35°C° 0 mm 2 mps 712 mmHg 31%
19:00 +31°C° 0 mm 1 mps 713 mmHg 37%
20:00 +28°C° 0 mm 1 mps 714 mmHg 44%
21:00 +28°C° 0 mm 1 mps 714 mmHg 45%
22:00 +27°C° 0 mm 1 mps 715 mmHg 47%
23:00 +27°C° 0 mm 1 mps 716 mmHg 49%

1 October, Thursday

Time Temperature Precipitation Wind Pressure Humidity
00:00 +25°C° 0 mm 2 mps 716 mmHg 52%
01:00 +23°C° 0 mm 2 mps 717 mmHg 55%
02:00 +20°C° 0 mm 3 mps 717 mmHg 58%
03:00 +19°C° 0 mm 2 mps 718 mmHg 56%
04:00 +18°C° 0 mm 2 mps 718 mmHg 54%
05:00 +17°C° 0 mm 2 mps 719 mmHg 52%
06:00 +17°C° 0 mm 2 mps 719 mmHg 54%
07:00 +16°C° 0 mm 2 mps 719 mmHg 57%
08:00 +16°C° 0 mm 1 mps 720 mmHg 59%
09:00 +16°C° 0 mm 1 mps 720 mmHg 59%
10:00 +16°C° 0 mm 1 mps 720 mmHg 60%
11:00 +16°C° 0 mm 1 mps 720 mmHg 61%
12:00 +16°C° 0 mm 2 mps 719 mmHg 57%
13:00 +17°C° 0 mm 2 mps 719 mmHg 52%
14:00 +17°C° 0 mm 2 mps 718 mmHg 48%
15:00 +17°C° 0 mm 2 mps 718 mmHg 45%
16:00 +17°C° 0 mm 2 mps 718 mmHg 41%
17:00 +17°C° 0 mm 2 mps 718 mmHg 38%
18:00 +17°C° 0 mm 2 mps 719 mmHg 36%
19:00 +18°C° 0 mm 1 mps 720 mmHg 34%
20:00 +16°C° 0 mm 1 mps 722 mmHg 33%
21:00 +16°C° 0 mm 1 mps 722 mmHg 33%
22:00 +16°C° 0 mm 2 mps 723 mmHg 33%
23:00 +16°C° 0 mm 2 mps 724 mmHg 33%
Show more